Location: Wheeling
(40.0640°N, 80.7210°W)
Time: 14:44:57
(UTC-05:00)

ITAMSAT 1 - Pass Details

Date: 26 October 2021
Orbit: 784 x 796 km, 98.9° (Epoch: 01 December)

Event Time Altitude Azimuth Distance (km) Brightness Sun altitude
Rises 19:48:14 0° 166° (SSE) 3,258 10.7 -16.1°
Reaches altitude 10° 19:50:32 10° 166° (SSE) 2,335 10.0 -16.5°
Maximum altitude 19:55:42 86° 256° (WSW) 793 7.6 -17.5°
Drops below altitude 10° 20:00:54 10° 345° (NNW) 2,356 10.3 -18.5°
Sets 20:03:14 0° 346° (NNW) 3,291 11.0 -18.9°
